www.pogodaiklimat.ru

Погода и климат >> Архив погоды >> Киргизия >> Бишкек


АРХИВ ПОГОДЫ в Бишкеке

Время (UTC), дата Ветер
(напр.,м/с)
 
Видим.   Явления Облачность Т
(С)
Тd
(С)
f
(%)
Тe
(С)
Тes
(С)
Комфортность P
(гПа)
Po
(гПа)
Тmin
(С)
Tmax
(С)
R
(мм)
S
(см)
21 14.02 штиль 0 н/о {снег} 10/10 600 м
[Sc]
-4.0 -6.1 85 -5 -5 по сезону 1026.7 933.8
00 15.02 СВ 1 н/о {снег} 10/10 600 м
[Sc]
-3.3 -5.7 83 -6 -6 по сезону 1028.0 935.2
03 15.02 штиль 0 10 км 10/10 300 м
[Sc]
-1.0 -2.9 87 -2 -2 по сезону 1027.5 935.5 3
06 15.02 В 1 20 км 10/0
[Ac trans]
+4.6 +0.1 73 +4 +7 тепло 1025.5 935.5 0.2
09 15.02 СЗ 2 10 км 10/4 1000 м
[Sc Ac trans]
+3.5 -1.5 70 +1 +2 по сезону 1025.5 935.1
12 15.02 штиль 0 20 км 10/0
[Ac trans Ci fib]
+3.0 -1.2 74 +2 +2 по сезону 1026.2 935.6
15 15.02 ЮВ 1 н/о 10/0
[Ci fib]
+1.6 -1.9 78 0 0 по сезону 1026.7 935.6 +5.6
18 15.02 З 1 н/о ясно -0.2 -1.7 90 -2 -2 по сезону 1026.5 934.8 +5.6
21 15.02 штиль 0 н/о ясно -2.0 -4.1 86 -3 -3 по сезону 1028.2 935.8
00 16.02 В 1 н/о 10/0
[Ci fib]
-1.0 -3.2 85 -3 -3 по сезону 1027.0 935.1
03 16.02 ЮВ 1 20 км 8/0
[Ci fib]
+1.8 -3.3 69 0 +1 по сезону 1024.4 933.5 <0.5
06 16.02 СВ 2 20 км 6/0
[Ci fib]
+11.2 0.0 46 +10 +16 тепло 1017.4 930.1
09 16.02 З 2 20 км 8/0
[Ac trans Ci fib]
+10.5 -3.0 39 +10 +13 тепло 1015.1 927.7
12 16.02 З 1 20 км 10/0
[Ac trans Ci fib]
+9.3 -1.2 48 +9 +9 тепло 1013.7 926.1
15 16.02 штиль 0 н/о 10/10 600 м
[Sc]
+5.6 -0.8 63 +5 +5 тепло 1013.2 924.5 +14.1
18 16.02 ЮВ 1 н/о 10/5 600 м
[Sc Ac trans]
+4.1 -1.7 66 +3 +3 тепло 1012.4 923.4 +14.1
21 16.02 З 7 н/о 10/8 600 м
[Sc Ac lent]
+5.7 +0.6 70 +1 +1 тепло 1016.4 927.5
00 17.02 СЗ 2 н/о 10/10 600 м
[Sc]
+5.5 0.0 68 +3 +3 тепло 1019.1 929.9
03 17.02 Ю 2 20 км 8/0
[Ac trans]
+3.3 +0.1 80 0 +1 по сезону 1020.0 930.1 0
06 17.02 З 1 20 км 8/0
[Ac trans Ci fib]
+7.9 +1.3 63 +7 +13 тепло 1018.0 929.7
09 17.02 З 2 20 км 10/0
[Ac lent]
+8.3 +1.1 60 +7 +8 тепло 1018.3 930.1
12 17.02 З 2 10 км 10/10 600 м
[Sc]
+3.8 -0.8 72 +1 +1 по сезону 1019.9 930.2
15 17.02 З 2 н/о слабый дождь 10/10 600 м
[Sc]
+1.1 -0.9 86 -2 -2 по сезону 1022.7 931.8 +9.4
18 17.02 С 1 н/о {дождь} 10/10 600 м
[Sc]
+0.9 -0.2 92 -1 -1 по сезону 1018.6 928.0 +9.4 3
21 17.02 З 1 н/о туман ?/? 0.0 -0.8 94 -2 -2 по сезону 1015.6 925.1
00 18.02 З 3 н/о в посл. час туман 10/10 600 м
[Sc]
-0.4 -1.6 92 -5 -5 по сезону 1017.5 926.6
03 18.02 З 2 10 км 10/10 600 м
[Sc]
-0.2 -2.2 86 -4 -4 по сезону 1018.6 927.6 0
06 18.02 штиль 0 2000 м снег 10/10 600 м
[Frnb Ns]
-0.1 -2.1 86 -1 -1 по сезону 1019.7 928.7 3
09 18.02 В 2 20 км {снег} 10/0
[As trans]
+3.7 0.0 77 +1 +3 по сезону 1012.8 923.6
12 18.02 З 2 2000 м снег 10/10 600 м
[Frnb Ns]
-0.6 -2.4 88 -4 -4 прохладно 1017.9 926.9
15 18.02 З 1 н/о снег 10/10 600 м
[Frnb Ns]
-1.2 -2.9 88 -3 -3 по сезону 1020.6 929.2 +4.6
18 18.02 З 1 н/о снег 10/10 300 м
[Frnb Ns]
-1.4 -3.4 86 -4 -4 по сезону 1024.0 932.2 +4.6 4
21 18.02 З 1 н/о снег 10/10 300 м
[Frnb Ns]
-1.6 -3.3 88 -4 -4 по сезону 1028.4 936.2
00 19.02 З 2 н/о снег 10/10 300 м
[Frnb Ns]
-2.8 -4.4 89 -7 -7 по сезону 1033.0 939.9
03 19.02 З 1 2000 м снег 10/10 300 м
[Frnb Ns]
-4.6 -7.0 83 -7 -7 прохладно 1038.3 944.1 11
06 19.02 С 1 2000 м снег 10/10 300 м
[Frnb Ns]
-5.8 -8.4 82 -8 -8 очень
холодно
1041.5 946.5 4
09 19.02 С 1 10 км в посл. час снег 10/8 600 м
[Sc Ac trans]
-4.2 -8.0 75 -6 -6 холодно 1041.3 946.9
12 19.02 В 1 10 км {снег} 10/4 600 м
[Sc Ac trans Ci fib]
-4.1 -7.9 75 -6 -6 холодно 1042.6 948.2
15 19.02 Ю 1 н/о 6/0
[Ci fib]
-5.1 -8.3 78 -7 -7 прохладно 1043.5 948.6 -3.2
18 19.02 штиль 0 н/о 3/0
[Ci fib]
-7.6 -10.6 79 -8 -8 прохладно 1043.5 947.7 -3.2 2
21 19.02 штиль 0 н/о 4/0
[Ci fib]
-8.6 -11.9 77 -9 -9 прохладно 1043.0 947.0
00 20.02 Ю 1 н/о 3/0
[Ci fib]
-8.4 -12.1 75 -11 -11 прохладно 1042.8 946.8
03 20.02 Ю 1 20 км 8/0
[Ac trans Ci fib]
-7.4 -12.3 68 -10 -9 прохладно 1042.9 947.3 10
06 20.02 СВ 2 20 км 4/0
[Ac trans]
+0.4 -9.3 48 -2 +3 по сезону 1039.4 946.7
09 20.02 В 2 20 км ясно +1.9 -11.5 36 -0 +5 по сезону 1037.1 945.1
12 20.02 СВ 2 20 км ясно -0.2 -9.4 50 -3 -3 по сезону 1037.5 944.8
15 20.02 Ю 1 н/о ясно -4.0 -9.4 66 -6 -6 по сезону 1038.3 944.3 +2.5
18 20.02 Ю 1 н/о ясно -6.4 -11.4 68 -9 -9 по сезону 1036.6 941.9 +2.5
21 20.02 Ю 1 н/о ясно -7.6 -12.1 70 -10 -10 по сезону 1034.9 939.9
00 21.02 Ю 1 н/о ясно -8.2 -12.8 69 -10 -10 прохладно 1032.6 937.6
03 21.02 штиль 0 20 км ясно -7.5 -11.5 73 -8 -6 холодно 1032.2 937.5 7
06 21.02 З 1 20 км ясно -0.7 -9.7 51 -2 +7 по сезону 1029.3 937.2
09 21.02 З 2 20 км ясно +1.2 -10.0 43 -1 +5 по сезону 1027.0 935.8
12 21.02 СЗ 2 20 км ясно -1.3 -8.4 58 -5 -4 холодно 1028.3 936.1
15 21.02 штиль 0 н/о ясно -5.1 -9.2 73 -6 -6 прохладно 1030.4 936.7 +2.3
18 21.02 штиль 0 н/о ясно -6.7 -9.1 83 -7 -7 прохладно 1030.8 936.5 +2.3

 

Местоположение метеостанции Бишкек (город Бишкек, Киргизия): широта 42.85 долгота 74.53 высота над уровнем моря 760 м.

В архиве по умолчанию представлена погода в Бишкеке за последнюю неделю. Архивные данные за месяц целиком и за предыдущие месяцы, начиная с января 2011 года, Вы можете получить, выбрав интересующий диапазон дат из раскрывающегося списка и нажав кнопку "Ввод!".

Внимание! Время в таблицах - всемирное. Для получения местного времени необходимо прибавить поправку, которая в Бишкеке равна 6 ч.

Смотрите также архив погоды в соседних городах и на ближайших метеорологических станциях:

Погода в Байтике (Чуйская область, Киргизия) (22 км)
Погода в Иссык-Ате (город Бишкек, Киргизия) (28 км)
Погода в Яны-Жере (Чуйская область, Киргизия) (46 км)
Погода в Бериктасе (Жамбылская область, Казахстан) (49 км)
Погода в Кара-Балте (Чуйская область, Киргизия) (58 км)
Погода в Тео-Ашуу (Чуйская область, Киргизия) (58 км)
Погода в Токмоке (Чуйская область, Киргизия) (61 км)
Погода в Кордае (Жамбылская область, Казахстан) (66 км)
Погода в Сусамыре (Чуйская область, Киргизия) (90 км)
Погода в Отаре (Жамбылская область, Казахстан) (96 км)

Пояснения к столбцам:

Ветер - указаны скорость ветра в м/с - средняя за 10 мин, порывы в срок и между сроками (в фигурных скобках) и направление, откуда дует ветер: С - северный, СВ - северо-восточный, В - восточный, ЮВ - юго-восточный, Ю - южный, ЮЗ - юго-западный, З - западный, СЗ - северо-западный.
Видимость - горизонтальная дальность видимости в метрах или километрах. При видимости от 1 до 10 км при отсутствии осадков обычно наблюдается дымка, при ухудшении видимости до 1 км и менее - туман. В сухую погоду видимость может ухудшаться дымом, пылью или мглою.
Явления - указаны атмосферные явления, наблюдавшиеся в срок или в последний час перед сроком; фигурными скобками обозначены явления, наблюдавшиеся между сроками (за 1-3 часа до срока); квадратными скобками обозначены град или гололедные отложения с указанием их диаметра в мм.
Облачность - указаны через наклонную черту общая и нижняя облачность в баллах и высота нижней границы облаков в метрах; квадратными скобками обозначены формы облаков: Ci - перистые, Cs - перисто-слоистые, Cc - перисто-кучевые, Ac - высококучевые, As - высокослоистые, Sc - слоисто-кучевые, Ns - слоисто-дождевые, Cu - кучевые, Cb - кучево-дождевые. Подробнее классификацию облаков см. в Атласе облаков (PDF).
T - Температура воздуха - температура, измеренная на высоте 2 м над землей.
Td - Температура точки росы - температура, при понижении до которой содержащийся в воздухе водяной пар достигнет насыщения.
f - Относительная влажность воздуха - влажноcть воздуха, измеренная на высоте 2 м над землей.
Te - Эффективная температура - температура, которую ощущает одетый по сезону человек в тени. Характеристика душности погоды. При расчете учитывается влияние влажности воздуха и скорости ветра на теплоощущения человека.
Tes - Эффективная температура на солнце - температура, которую ощущает человек, с поправкой на солнечный нагрев. Характеристика знойности погоды. Зависит от высоты солнца над горизонтом, облачности и скорости ветра. Ночью, в пасмурную погоду, а также при ветре 12 м/с и более поправка равна нулю.
P - Атмосферное давление - приведенное к уровню моря атмосферное давление.
Po - Атмосферное давление - измеренное на уровне метеостанции атмосферное давление.
Tmin - Минимальная температура - минимум температуры воздуха на высоте 2 м над землей.
Tmax - Максимальная температура - максимум температуры воздуха на высоте 2 м над землей.
R - Количество осадков - Количество выпавших осадков, мм. При наведении курсора мыши на число - период времени, за который выпало указанное количество осадков.
S - Снежный покров - Высота снежного покрова, см. При наведении курсора мыши на число - состояние снежного покрова и степень покрытия местности в баллах.